Location: Baix
(44.7118°N, 4.7648°E)
Time: 03:20:48
(UTC+00:00)

CBERS-1 - Pass Details

Date: 07 August 2020
Orbit: 769 x 777 km, 98.6° (Epoch: 27 September)

Event Time Altitude Azimuth Distance (km) Brightness Sun altitude
Rises 01:59:56 0° 14° (NNE) 3,263 8.5 -21.9°
Reaches altitude 10° 02:02:15 10° 15° (NNE) 2,330 7.5 -21.6°
Maximum altitude 02:07:24 86° 102° (ESE) 780 3.9 -21.1°
Enters shadow 02:09:11 42° 191° (S) 1,086 4.3 -20.9°
